Time,TemperatureF,DewpointF,PressureIn,WindDirection,WindDirectionDegrees,WindSpeedMPH,WindSpeedGustMPH,Humidity,HourlyPrecipIn,Conditions,Clouds,dailyrainin,SoftwareType,DateUTC
2013-07-06 00:02:00,68.0,63.0,30.00,ENE,57,0.0,-999.0,84,-99.99,,,-99.99,,2013-07-06 05:02:00,
2013-07-06 00:12:00,67.0,62.0,29.99,ENE,57,0.0,-999.0,85,-99.99,,,-99.99,,2013-07-06 05:12:00,
2013-07-06 00:33:00,67.0,62.0,29.99,ENE,57,0.0,-999.0,84,-99.99,,,-99.99,,2013-07-06 05:33:00,
2013-07-06 00:42:00,67.0,62.0,29.99,ENE,57,0.0,-999.0,85,-99.99,,,-99.99,,2013-07-06 05:42:00,
2013-07-06 00:53:00,67.0,62.0,29.99,ENE,57,0.0,-999.0,85,-99.99,,,-99.99,,2013-07-06 05:53:00,
2013-07-06 01:02:00,66.0,62.0,29.98,ENE,57,0.0,-999.0,86,-99.99,,,-99.99,,2013-07-06 06:02:00,
2013-07-06 01:12:00,67.0,62.0,29.98,ENE,57,0.0,-999.0,85,-99.99,,,-99.99,,2013-07-06 06:12:00,
2013-07-06 01:22:00,67.0,62.0,29.98,ENE,57,0.0,-999.0,85,-99.99,,,-99.99,,2013-07-06 06:22:00,
2013-07-06 01:34:00,66.0,62.0,29.98,ENE,57,0.0,-999.0,87,-99.99,,,-99.99,,2013-07-06 06:34:00,
2013-07-06 01:43:00,65.0,61.0,29.98,ENE,57,0.0,-999.0,88,-99.99,,,-99.99,,2013-07-06 06:43:00,
2013-07-06 02:02:00,65.0,61.0,29.98,ENE,57,0.0,-999.0,88,-99.99,,,-99.99,,2013-07-06 07:02:00,
2013-07-06 02:12:00,64.0,61.0,29.99,ENE,57,0.0,-999.0,89,-99.99,,,-99.99,,2013-07-06 07:12:00,
2013-07-06 02:22:00,64.0,61.0,29.99,ENE,57,0.0,-999.0,89,-99.99,,,-99.99,,2013-07-06 07:22:00,
2013-07-06 02:33:00,64.0,61.0,29.99,ENE,57,0.0,-999.0,90,-99.99,,,-99.99,,2013-07-06 07:33:00,
2013-07-06 02:44:00,64.0,61.0,29.99,ENE,57,0.0,-999.0,90,-99.99,,,-99.99,,2013-07-06 07:44:00,
2013-07-06 02:52:00,64.0,61.0,29.99,ENE,57,0.0,-999.0,90,-99.99,,,-99.99,,2013-07-06 07:52:00,
2013-07-06 03:02:00,63.0,60.0,29.99,ENE,57,0.0,-999.0,90,-99.99,,,-99.99,,2013-07-06 08:02:00,
2013-07-06 03:12:00,63.0,61.0,30.00,ENE,57,0.0,-999.0,92,-99.99,,,-99.99,,2013-07-06 08:12:00,
2013-07-06 03:21:00,63.0,61.0,30.00,ENE,57,0.0,-999.0,92,-99.99,,,-99.99,,2013-07-06 08:21:00,
2013-07-06 03:34:00,63.0,61.0,30.00,ENE,57,0.0,-999.0,92,-99.99,,,-99.99,,2013-07-06 08:34:00,
2013-07-06 03:43:00,63.0,61.0,30.00,ENE,57,0.0,-999.0,92,-99.99,,,-99.99,,2013-07-06 08:43:00,
2013-07-06 03:54:00,63.0,61.0,30.00,ENE,57,0.0,-999.0,92,-99.99,,,-99.99,,2013-07-06 08:54:00,
2013-07-06 04:02:00,63.0,61.0,30.00,ENE,57,0.0,-999.0,93,-99.99,,,-99.99,,2013-07-06 09:02:00,
2013-07-06 04:11:00,63.0,61.0,29.99,ENE,57,0.0,-999.0,93,-99.99,,,-99.99,,2013-07-06 09:11:00,
2013-07-06 04:22:00,63.0,61.0,29.99,ENE,57,0.0,-999.0,93,-99.99,,,-99.99,,2013-07-06 09:22:00,
2013-07-06 04:33:00,63.0,61.0,29.99,ENE,57,0.0,-999.0,93,-99.99,,,-99.99,,2013-07-06 09:33:00,
2013-07-06 04:43:00,63.0,61.0,29.99,ENE,57,0.0,-999.0,93,-99.99,,,-99.99,,2013-07-06 09:43:00,
2013-07-06 04:52:00,63.0,61.0,29.99,ENE,57,0.0,-999.0,93,-99.99,,,-99.99,,2013-07-06 09:52:00,
2013-07-06 05:02:00,63.0,61.0,29.99,ENE,57,0.0,-999.0,93,-99.99,,,-99.99,,2013-07-06 10:02:00,
2013-07-06 05:11:00,63.0,61.0,29.99,ENE,57,0.0,-999.0,93,-99.99,,,-99.99,,2013-07-06 10:11:00,
2013-07-06 05:22:00,63.0,61.0,29.99,ENE,57,0.0,-999.0,93,-99.99,,,-99.99,,2013-07-06 10:22:00,
2013-07-06 05:33:00,62.0,60.0,30.00,ENE,74,0.0,-999.0,94,-99.99,,,-99.99,,2013-07-06 10:33:00,
2013-07-06 05:42:00,62.0,61.0,30.00,South,175,0.0,-999.0,95,-99.99,,,-99.99,,2013-07-06 10:42:00,
2013-07-06 05:53:00,62.0,61.0,30.00,South,175,0.0,-999.0,95,-99.99,,,-99.99,,2013-07-06 10:53:00,
2013-07-06 06:01:00,62.0,61.0,30.00,NNE,30,0.0,-999.0,95,-99.99,,,-99.99,,2013-07-06 11:01:00,
2013-07-06 06:11:00,62.0,61.0,30.01,SSW,211,0.0,-999.0,96,-99.99,,,-99.99,,2013-07-06 11:11:00,
2013-07-06 06:22:00,62.0,61.0,30.01,SSW,211,0.0,-999.0,96,-99.99,,,-99.99,,2013-07-06 11:22:00,
2013-07-06 06:33:00,62.0,61.0,30.01,ESE,108,0.0,-999.0,95,-99.99,,,-99.99,,2013-07-06 11:33:00,
2013-07-06 06:42:00,63.0,62.0,30.01,East,87,0.0,-999.0,96,-99.99,,,-99.99,,2013-07-06 11:42:00,
2013-07-06 06:53:00,63.0,62.0,30.01,East,87,0.0,-999.0,96,-99.99,,,-99.99,,2013-07-06 11:53:00,
2013-07-06 07:01:00,64.0,63.0,30.01,East,87,0.0,-999.0,95,-99.99,,,-99.99,,2013-07-06 12:01:00,
2013-07-06 07:11:00,64.0,63.0,30.01,ENE,62,0.0,-999.0,95,-99.99,,,-99.99,,2013-07-06 12:11:00,
2013-07-06 07:22:00,64.0,63.0,30.01,ENE,62,0.0,-999.0,95,-99.99,,,-99.99,,2013-07-06 12:22:00,
2013-07-06 07:33:00,65.0,64.0,30.00,ENE,61,0.0,-999.0,95,-99.99,,,-99.99,,2013-07-06 12:33:00,
2013-07-06 07:43:00,66.0,65.0,30.01,NNE,21,0.0,-999.0,95,-99.99,,,-99.99,,2013-07-06 12:43:00,
2013-07-06 07:52:00,66.0,65.0,30.01,NNE,21,0.0,-999.0,95,-99.99,,,-99.99,,2013-07-06 12:52:00,
2013-07-06 08:01:00,67.0,65.0,30.00,NNE,21,0.0,-999.0,94,-99.99,,,-99.99,,2013-07-06 13:01:00,
2013-07-06 08:12:00,69.0,67.0,30.01,North,5,0.0,-999.0,93,-99.99,,,-99.99,,2013-07-06 13:12:00,
2013-07-06 08:22:00,69.0,67.0,30.01,North,5,0.0,-999.0,93,-99.99,,,-99.99,,2013-07-06 13:22:00,
2013-07-06 08:33:00,70.0,67.0,30.01,NE,37,0.0,-999.0,91,-99.99,,,-99.99,,2013-07-06 13:33:00,
2013-07-06 08:43:00,72.0,68.0,30.01,South,188,0.0,-999.0,87,-99.99,,,-99.99,,2013-07-06 13:43:00,
2013-07-06 08:52:00,72.0,68.0,30.01,South,188,0.0,-999.0,87,-99.99,,,-99.99,,2013-07-06 13:52:00,
2013-07-06 09:11:00,74.0,68.0,30.01,SE,130,0.0,-999.0,83,-99.99,,,-99.99,,2013-07-06 14:11:00,
2013-07-06 09:22:00,74.0,68.0,30.01,SE,130,0.0,-999.0,83,-99.99,,,-99.99,,2013-07-06 14:22:00,
2013-07-06 09:34:00,75.0,69.0,30.01,SE,144,0.0,-999.0,82,-99.99,,,-99.99,,2013-07-06 14:34:00,
2013-07-06 09:42:00,76.0,70.0,30.00,SE,136,0.0,-999.0,81,-99.99,,,-99.99,,2013-07-06 14:42:00,
2013-07-06 09:53:00,76.0,70.0,30.00,SE,136,0.0,-999.0,81,-99.99,,,-99.99,,2013-07-06 14:53:00,
2013-07-06 10:02:00,77.0,70.0,30.00,SSE,158,0.0,-999.0,78,-99.99,,,-99.99,,2013-07-06 15:02:00,
2013-07-06 10:12:00,77.0,69.0,30.00,SSE,155,2.0,-999.0,77,-99.99,,,-99.99,,2013-07-06 15:12:00,
2013-07-06 10:22:00,77.0,69.0,30.00,SSE,155,2.0,-999.0,77,-99.99,,,-99.99,,2013-07-06 15:22:00,
2013-07-06 10:33:00,78.0,70.0,30.00,SW,226,1.0,-999.0,77,-99.99,,,-99.99,,2013-07-06 15:33:00,
2013-07-06 10:43:00,79.0,70.0,30.00,SSE,161,0.0,-999.0,75,-99.99,,,-99.99,,2013-07-06 15:43:00,
2013-07-06 10:53:00,79.0,70.0,30.00,SSE,161,0.0,-999.0,75,-99.99,,,-99.99,,2013-07-06 15:53:00,
2013-07-06 11:07:00,79.0,71.0,29.99,SW,227,1.0,-999.0,76,-99.99,,,-99.99,,2013-07-06 16:07:00,
2013-07-06 12:31:00,81.0,69.0,29.98,SSW,207,1.0,-999.0,66,-99.99,,,-99.99,,2013-07-06 17:31:00,
2013-07-06 12:43:00,82.0,70.0,29.98,SW,226,0.0,-999.0,67,-99.99,,,-99.99,,2013-07-06 17:43:00,
2013-07-06 13:00:00,82.0,69.0,29.98,SSE,150,1.0,-999.0,64,-99.99,,,-99.99,,2013-07-06 18:00:00,
2013-07-06 13:10:00,83.0,69.0,29.97,ENE,69,0.0,-999.0,62,-99.99,,,-99.99,,2013-07-06 18:10:00,
2013-07-06 13:22:00,82.0,69.0,29.97,SE,142,0.0,-999.0,66,-99.99,,,-99.99,,2013-07-06 18:22:00,
2013-07-06 13:33:00,82.0,69.0,29.97,SE,142,0.0,-999.0,66,-99.99,,,-99.99,,2013-07-06 18:33:00,
2013-07-06 13:44:00,81.0,69.0,29.97,SSE,157,0.0,-999.0,67,-99.99,,,-99.99,,2013-07-06 18:44:00,
2013-07-06 13:52:00,82.0,69.0,29.97,SSE,153,0.0,-999.0,66,-99.99,,,-99.99,,2013-07-06 18:52:00,
2013-07-06 14:01:00,82.0,69.0,29.97,SSE,153,0.0,-999.0,66,-99.99,,,-99.99,,2013-07-06 19:01:00,
2013-07-06 14:11:00,83.0,69.0,29.96,SSE,166,0.0,-999.0,62,-99.99,,,-99.99,,2013-07-06 19:11:00,
2013-07-06 14:21:00,83.0,71.0,29.96,SSE,157,0.0,-999.0,67,-99.99,,,-99.99,,2013-07-06 19:21:00,
2013-07-06 14:43:00,83.0,68.0,29.95,SSE,147,0.0,-999.0,60,-99.99,,,-99.99,,2013-07-06 19:43:00,
2013-07-06 15:12:00,84.0,68.0,29.95,East,79,1.0,-999.0,58,-99.99,,,-99.99,,2013-07-06 20:12:00,
2013-07-06 15:31:00,85.0,69.0,29.95,ENE,73,0.0,-999.0,58,-99.99,,,-99.99,,2013-07-06 20:31:00,
2013-07-06 16:43:00,83.0,68.0,29.94,South,183,0.0,-999.0,61,-99.99,,,-99.99,,2013-07-06 21:43:00,
2013-07-06 16:53:00,83.0,68.0,29.94,ESE,113,0.0,-999.0,61,-99.99,,,-99.99,,2013-07-06 21:53:00,
2013-07-06 17:00:00,83.0,68.0,29.94,ESE,113,0.0,-999.0,61,-99.99,,,-99.99,,2013-07-06 22:00:00,
2013-07-06 17:13:00,82.0,68.0,29.94,South,179,0.0,-999.0,63,-99.99,,,-99.99,,2013-07-06 22:13:00,
2013-07-06 17:32:00,82.0,67.0,29.93,SSE,153,0.0,-999.0,61,-99.99,,,-99.99,,2013-07-06 22:32:00,
2013-07-06 18:00:00,82.0,68.0,29.93,SSE,163,0.0,-999.0,63,-99.99,,,-99.99,,2013-07-06 23:00:00,
2013-07-06 18:09:00,81.0,68.0,29.92,SE,142,0.0,-999.0,64,-99.99,,,-99.99,,2013-07-06 23:09:00,
2013-07-06 18:21:00,81.0,69.0,29.92,SE,146,0.0,-999.0,66,-99.99,,,-99.99,,2013-07-06 23:21:00,
2013-07-06 18:45:00,80.0,68.0,29.92,NNW,340,0.0,-999.0,67,-99.99,,,-99.99,,2013-07-06 23:45:00,
2013-07-06 19:01:00,80.0,68.0,29.92,NNW,328,0.0,-999.0,68,-99.99,,,-99.99,,2013-07-07 00:01:00,
2013-07-06 19:12:00,79.0,68.0,29.92,South,173,0.0,-999.0,70,-99.99,,,-99.99,,2013-07-07 00:12:00,
2013-07-06 19:14:00,80.0,69.0,29.93,WSW,252,0.0,-999.0,69,-99.99,,,-99.99,,2013-07-07 00:14:00,
2013-07-06 19:22:00,80.0,69.0,29.93,SW,230,0.0,-999.0,70,-99.99,,,-99.99,,2013-07-07 00:22:00,
2013-07-06 19:31:00,80.0,69.0,29.93,SW,230,0.0,-999.0,70,-99.99,,,-99.99,,2013-07-07 00:31:00,
2013-07-06 19:59:00,79.0,68.0,29.92,South,173,0.0,-999.0,70,-99.99,,,-99.99,,2013-07-07 00:59:00,
2013-07-06 20:30:00,77.0,69.0,29.93,SE,132,0.0,-999.0,76,-99.99,,,-99.99,,2013-07-07 01:30:00,
2013-07-06 20:49:00,79.0,69.0,29.92,South,185,0.0,-999.0,72,-99.99,,,-99.99,,2013-07-07 01:49:00,
2013-07-06 20:59:00,77.0,69.0,29.93,SE,132,0.0,-999.0,76,-99.99,,,-99.99,,2013-07-07 01:59:00,
2013-07-06 21:08:00,77.0,69.0,29.93,SE,132,0.0,-999.0,76,-99.99,,,-99.99,,2013-07-07 02:08:00,
2013-07-06 21:19:00,77.0,69.0,29.93,SE,132,0.0,-999.0,76,-99.99,,,-99.99,,2013-07-07 02:19:00,